GSAT0101 (GALILEO-PFM) (37846 NORAD) Tracking and Keplerian Element Data

This shows tracking and keplerian element data for the satellite.

Feedback or suggestion? Click here.




ElementValue
Catalog37846
NameGSAT0101 (GALILEO-PFM)
Epoch Orbit4450
Epoch Day348.15063826
Epoch Year2018
RAAN56.5157
Inclination56.2426
Eccentricity0.0002905
Argument of Perigee307.6177
Mean Anonmoly52.4022
Mean Motion1.70475849
Decay Rate-6.4E-07
L11 37846U 11060A 18348.15063826 -.00000064 00000-0 00000+0 0 9991
L22 37846 56.2426 56.5157 0002905 307.6177 52.4022 1.70475849 44504

Live tracking and technical data element details for GSAT0101 (GALILEO-PFM) (NORAD 37846). GSAT0101 (GALILEO-PFM) can be tracked NOW for your location showing map with azimuth and elevation plus other details from your city location.

Track the satellite on the map from your city or location and see movement details for azimuth, elevation, latitude, longitude, range, height, and movement on the map or in text.







IsCatalogInMostPopularTable: catalog: 37846, numindb: 67
Update: records affected: 1



GetName: 37846 GSAT0101 (GALILEO-PFM)

Hit Count: updated at: Sat, 15 Dec 2018 14:29:04 GMT